Regional Weather Roundup
Issued by NWS Pendleton, OR

Home | Current Version | Previous Version | Text Only | Print | Product List | Glossary On
Versions: 1 2 3 4 5 6 7 8 9 10 11 12 13 14 15 16 17 18 19 20 21 22 23 24 25 26 27 28 29 30 31 32 33 34 35 36 37 38 39 40 41 42 43 44 45 46 47 48 49 50
000
ASUS46 KPDT 261525
RWRPDT
PENDLETON REGIONAL WEATHER ROUNDUP
NATIONAL WEATHER SERVICE PENDLETON OREGON
700 AM PST FRI DEC 26 2014

NOTE: FAIR INDICATES FEW OR NO CLOUDS BELOW 12,000 FEET WITH NO
SIGNIFICANT WEATHER AND/OR OBSTRUCTIONS TO VISIBILITY.

# INDICATES UNOFFICIAL STATION AND DATA

WAZ520-261610-
EAST SLOPES OF WASHINGTON CASCADES

CITY            SKY/WX      TMP DP  RH  WIND    PRES   REMARKS
#BULLFROG 2SW   N/A         32  29  89  SE2     27.81S
#BUMPING DAM    N/A         21  N/A N/A CALM    N/A
#CLE ELUM HS    N/A         29  23  78  W2      30.19S
#CLE ELUM 2NW   N/A         29  24  81  SW3     N/A
#CLE ELUM LAKE  N/A         27  23  85  CALM    30.31R
#CLIFFDEL 2NW   N/A         26  23  88  N2      N/A
#GLENWOOD       N/A         18  17  96  CALM    30.36R
#MANASTASH CYN  N/A         22  17  81  CALM    30.17R
#NELSON         N/A         26  25  96  CALM    30.33R
#NELSON 3SW     N/A         28  24  85  CALM    30.52S
#NILE           N/A         23  22  96  CALM    29.56R
#RONALD 2NW     N/A         28  24  85  N1      30.09S
#SNOWDEN        N/A         27  22  81  CALM    N/A
#TEANAWAY 4NE   N/A         22  20  92  CALM    N/A
#TROUT LAKE HS  N/A         27  27  100 N1      N/A
#TROUT LAKE 1NE N/A         25  24  96  CALM    30.32R
$$

WAZ521-261610-
SIMCOE HIGHLANDS

CITY            SKY/WX      TMP DP  RH  WIND    PRES   REMARKS
#BICKLETON HS   N/A         23  13  65  W7      34.25S
#CENTERVILLE 1SWN/A         25  22  88  CALM    30.32R
#GOLDENDALE     N/A         23  21  92  E1      N/A
#GOLDENDALE 1NE N/A         22  18  84  N5      N/A
#GOLDENDALE 1S  N/A         23  21  92  CALM    30.22R
#GOLDENDALE 5WNWN/A         23  20  88  CALM    30.32R
#GOODNOE HILLS  N/A         32  22  66  NE3     N/A
#LYLE 6NE       N/A         34  31  89  CALM    30.29R
$$

WAZ026-261610-
KITTITAS VALLEY

CITY            SKY/WX      TMP DP  RH  WIND    PRES   REMARKS
ELLENSBURG AP   CLEAR       26  18  71  E3      30.24R
#ELLENSBURG CWU N/A         26  21  81  NE2     30.26R
#ELLENSBURG 3NE N/A         24  19  81  E1      30.24R
#ELLENSBURG     N/A         25  24  96  N1      N/A
#ELLENSBURG 1E  N/A         21  17  84  CALM    N/A
#KITTITAS 4N    N/A         25  18  74  CALM    30.27R
#KITTITAS 3S    N/A         18  16  92  CALM    30.31R
#THORP 6N       N/A         27  22  81  N6      30.33R
$$

WAZ027-261610-
YAKIMA VALLEY

CITY            SKY/WX      TMP DP  RH  WIND    PRES   REMARKS
YAKIMA AIRPORT  CLEAR       22  17  81  W7      30.28R
YAKIMA-VAGABOND CLEAR       24  22  92  VRB2    30.28R
#DONALD 2NE     N/A         30  22  72  CALM    29.12R
#GRANDVIEW      N/A         24  21  88  CALM    30.34R
#MABTON         N/A         26  23  88  CALM    30.29R
#MOXEE 2E       N/A         52  37  56  NW10    29.69
#NACHES 2SW     N/A         34  25  69  SW3     30.23R
#OUTLOOK DOT    N/A         N/A N/A N/A E1      N/A
#SELAH 8E       N/A         25  21  84  SE6     N/A
#TERRACE HTS    N/A         24  21  88  CALM    30.29R
#WAPATO 4NE     N/A         30  22  72  CALM    29.12R
#WEST VALLEY    N/A         25  20  81  CALM    30.31R
#W YAKIMA       N/A         32  24  72  W1      30.32R
#WHITE SWAN 5E  N/A         21  19  92  CALM    30.33R
#WILEY CITY 3W  N/A         29  23  78  W5      30.28R
$$

WAZ028-261610-
LOWER COLUMBIA BASIN...WASHINGTON

CITY            SKY/WX      TMP DP  RH  WIND    PRES   REMARKS
PASCO           CLEAR       24  23  96  N3      30.31R
PROSSER AWOS    N/A         23  23  100 NW1     30.33R
RICHLAND AWOS   CLEAR       28  27  96  CALM    30.30R
#BASIN CITY 5SW N/A         25  23  92  N2      30.28S
#CONNELL 5N     N/A         23  21  92  CALM    30.30S
#CONNELL 5NW    N/A         28  24  85  CALM    30.27S
#ELTOPIA        N/A         26  24  92  CALM    30.28
#ELTOPIA 6NW    N/A         29  26  88  CALM    29.23R
#KAHLOTUS       N/A         29  25  85  S1      30.30R
#KENNEWICK      N/A         32  29  89  SE2     27.81S
#KENNEWICK 3S   N/A         34  26  72  CALM    30.31S
#PASCO-BROADMOORN/A         24  19  81  CALM    30.25R
#PATERSON       N/A         30  28  92  NE1     30.31R
#PROSSER        N/A         31  23  72  CALM    30.31S
#SAGEMOOR 2W    N/A         30  27  88  CALM    30.15S
#TOUCHET 2S     N/A         25  23  92  CALM    30.31R
#WEST PASCO     N/A         25  21  84  CALM    30.35R
$$

WAZ029-261610-
FOOTHILLS OF THE BLUES...WASHINGTON

CITY            SKY/WX      TMP DP  RH  WIND    PRES   REMARKS
WALLA WALLA AP  CLOUDY      34  29  82  S7      30.27R
#COLLEGE PLACE  N/A         32  25  75  CALM    30.30R
#DAYTON SCHOOL  N/A         31  23  72  CALM    30.26R
#LOWDEN 2SE     N/A         28  27  96  E1      30.27R
#PLEASANT VIEW 1N/A         29  27  92  SW7     30.35R
#PRESCOTT       N/A         29  28  96  CALM    30.32R
#SUDBURY        N/A         28  N/A N/A CALM    N/A
#WHITMAN COLLEGEN/A         35  31  85  SE3     30.36R
#WAITSBURG 5S   N/A         32  29  89  S7      30.41R
#WALLA WALLA 5E N/A         35  31  85  SW3     N/A
#WALLA WALLA U  N/A         32  30  92  CALM    30.32R
#WHITMAN MISSIONN/A         30  28  92  CALM    30.34R
$$

WAZ030-261610-
BLUE MOUNTAINS...WASHINGTON

CITY            SKY/WX      TMP DP  RH  WIND    PRES   REMARKS
#DIXIE 5SE      N/A         28  23  81  S7      30.12R
#SKI BLUEWOOD   N/A         21  19  92  CALM    30.20R
$$

ORZ009-041-WAZ024-261610-
COLUMBIA RIVER GORGE

CITY            SKY/WX      TMP DP  RH  WIND    PRES   REMARKS
HOOD RIVER AP   CLEAR       32  32  100 S3      30.31R
THE DALLES AP   CLEAR       39  34  82  NW9     30.31R
#ARLINGTON AIRPON/A         34  29  82  CALM    30.02S
#ARLINGTON HS   N/A         30  27  88  S2      30.28R
#CELILO DOT     N/A         39  30  70  CALM    N/A
#LYLE           N/A         35  31  85  E9      30.33R
#MARYHILL 2W    N/A         36  34  92  CALM    N/A
#MOSIER 1S      N/A         35  33  92  CALM    30.29S
#MURDOCK        N/A         37  35  92  NW5     30.34R
#RUFUS DOT      N/A         33  29  85  CALM    N/A

$$

ORZ510-261610-
NORTH CENTRAL OREGON

CITY            SKY/WX      TMP DP  RH  WIND    PRES   REMARKS
#CHENOWITH 1W   N/A         35  35  100 NW18    N/A    WCI 24
#COW CYN RST AREN/A         30  28  92  NE1     N/A
#DUFUR 9E       N/A         33  32  96  NW2     30.37R
#GRASS VALLEY   N/A         25  25  100 SE2     N/A
#KENT DOT       N/A         27  22  81  S1      N/A
#MAUPIN SCHOOL  N/A         27  25  92  CALM    30.32R
#MORO SCHOOL    N/A         34  33  96  W7      30.26R
#SHANIKO 5WSW   N/A         29  24  81  CALM    N/A
#SHANIKO 4NW    N/A         29  26  88  W2      30.20R
#TYGH VALLEY 2NEN/A         26  24  92  CALM    30.34R
#WAPANITIA AIRPON/A         25  23  92  CALM    30.35R
#WASCO DOT      N/A         29  27  92  CALM    N/A
#WASCO AIRPORT  N/A         32  30  92  W5      N/A
#WASCO 5NE      N/A         31  29  92  CALM    30.32R
$$

ORZ511-261610-
CENTRAL OREGON

CITY            SKY/WX      TMP DP  RH  WIND    PRES   REMARKS
BEND AIRPORT    CLEAR       23  19  84  S5      30.24R
MADRAS AIRPORT  CLEAR       25  25  100 S5      30.27R
PRINEVILLE AP   CLOUDY      25  25  100 S6      30.24R
REDMOND AIRPORT CLEAR       22  20  92  SE3     30.23R
#BEND 1SW       N/A         21  19  92  SW2     N/A
#BEND-AWBREY    N/A         29  24  81  CALM    30.33R
#BEND-KIM LN    N/A         25  22  88  SW3     30.18R
#CROOKED RVR RANN/A         27  25  92  N9      30.33R
#LAKE BILLY CHINN/A         26  26  100 CALM    30.36R
#POWELL BUTTE 3EN/A         24  22  92  SE2     N/A
#POWELL BUTTE   N/A         27  23  85  S3      29.83R
#PRINEVILLE 3N  N/A         24  23  96  W2      30.29R
#WARM SPRINGS   N/A         24  22  92  CALM    30.25R


ORZ509-261610-
EAST SLOPES OF OREGON CASCADES

CITY            SKY/WX      TMP DP  RH  WIND    PRES   REMARKS
#BLACK BUTTE RNCN/A         30  28  92  CALM    30.33R
#CAMP SHERMAN   N/A         25  22  88  CALM    30.38R
#LA PINE DOT    N/A         15  13  92  E1      N/A
#LA PINE 4NW    N/A         16  13  88  CALM    30.38R
#LAVA BUTTE DOT N/A         16  14  92  CALM    N/A
#MT BACHELOR-MIDN/A         17  15  92  E3      N/A
#SISTERS AIRPOR N/A         30  28  92  CALM    30.17S
#SISTERS ODOT   N/A         32  N/A N/A CALM    N/A
#SISTERS 1NW    N/A         34  25  69  N6      N/A
#SISTERS 3N     N/A         27  20  74  CALM    30.22S
#SUNRIVER       N/A         16  14  92  CALM    30.26R
#TUMALO 3W      N/A         32  24  72  NW7     30.20R
#WANOGA BUTTE D N/A         23  13  65  NE2     N/A

$$

ORZ044-261610-
LOWER COLUMBIA BASIN...OREGON

CITY            SKY/WX      TMP DP  RH  WIND    PRES   REMARKS
HERMISTON       CLEAR       23  23  100 SE3     30.29R FOG
#BOARDMAN 3W    N/A         25  24  96  SE1     30.03S
#BOARDMAN 8SW   N/A         32  30  92  CALM    30.31R
#ECHO 8SW       N/A         32  26  78  CALM    30.26S
#IONE SCHOOL    N/A         30  20  66  CALM    30.27R
#IRRIGON 4NW    N/A         29  29  100 CALM    N/A
#UMATILLA SCHOOLN/A         23  23  100 S1      30.41S
#UMATILLA       N/A         30  26  85  CALM    30.29R
$$

ORZ507-261610-
NORTHERN FOOTHILLS OF THE BLUES

CITY            SKY/WX      TMP DP  RH  WIND    PRES   REMARKS
PENDLETON AIRPT CLEAR       30  27  88  S6      30.26R
#ADAMS 3WNW     N/A         26  25  96  CALM    30.33S
#ATHENA         N/A         28  26  92  CALM    30.35R
#CAYUSE         N/A         32  30  92  CALM    30.31R
#HELIX SCHOOL   N/A         26  25  96  CALM    30.33R
#HELIX 3N       N/A         30  29  96  S6      30.20R
#HELIX 6SW      N/A         29  27  92  CALM    30.24S
#HOLDMAN 5SE    N/A         29  27  92  CALM    30.26R
#HOLDMAN 6E     N/A         30  29  96  CALM    30.13R
#M-F GROVE ELEM N/A         35  29  78  CALM    30.25R
#M-FREEWATER 5SEN/A         35  30  82  CALM    30.26R
#PENDLETON DNTN N/A         29  23  78  CALM    29.08S
#PDT AQUATIC CTRN/A         30  23  75  CALM    30.26R
#PENDLETON 5NE  N/A         27  25  92  CALM    30.22R
#PENDLETON 7NW  N/A         29  25  85  CALM    N/A
#PILOT ROCK     N/A         29  20  69  CALM    30.27R
#TUTUILLA       N/A         28  25  88  S3      30.31S
#UMAPINE 2E     N/A         30  27  88  CALM    30.27R
#WESTON SCHOOL  N/A         33  28  82  CALM    30.22R

$$

ORZ508-261610-
SOUTHERN FOOTHILLS OF THE BLUES

CITY            SKY/WX      TMP DP  RH  WIND    PRES   REMARKS
LEXINGTON       CLEAR       32  30  92  E8      30.28S
#AJAX           N/A         33  24  69  S1      30.17R
#CONDON SCHOOL  N/A         29  27  92  CALM    30.18R
#CONDON 5W      N/A         27  25  92  NW7     30.18R
#FOSSIL SCHOOL  N/A         31  28  88  CALM    30.20R
#HEPPNER EOC    N/A         29  26  88  E6      30.28R
#HEPPNER 4NE    N/A         27  25  92  S1      30.33R
#LEXINGTON 2SE  N/A         32  27  82  SE1     30.23R
#MIKKALO        N/A         32  27  82  W3      30.25R
#RUGGS 5NE      N/A         23  20  88  CALM    30.36R
#RUGGS 2SW      N/A         28  25  88  SW8     30.36R

$$

ORZ502-503-261610-
BLUE MOUNTAINS

CITY            SKY/WX      TMP DP  RH  WIND    PRES   REMARKS
MEACHAM         PTCLDY      23  20  88  CALM    30.18R
#BATTLE MTN DOT N/A         22  22  100 CALM    N/A
#HARDMAN 10S    N/A         24  23  96  CALM    30.45S
#HEPPNER 15SE   N/A         24  23  96  CALM    30.07R
#LADD CYN SMT   N/A         26  15  63  W7      N/A
#LADD CREEK ODOTN/A         28   8  42  NE2     N/A
#LONG CREEK HS  N/A         26  26  100 CALM    30.16R
#N POWDER DOT   N/A         26  20  78  NE10    N/A
#PIKES PEAK     N/A         27  25  92  SW15    27.99S WCI 15
#TROY SCHOOL    N/A         29  27  92  CALM    30.15R
#UKIAH          N/A         19  18  96  CALM    30.39R
#WESTON 4E      N/A         28  27  96  CALM    30.27S
$$

ORZ505-261610-
JOHN DAY BASIN

CITY            SKY/WX      TMP DP  RH  WIND    PRES   REMARKS
JOHN DAY        MOCLDY      29  26  88  CALM    30.20S
#JOHN DAY KJDY  N/A         32  24  72  CALM    30.32R
#DAYVILLE SCHOOLN/A         32  29  89  CALM    30.16S
#MONUMENT HS    N/A         29  26  88  CALM    30.26R
#MT. VERNON 5SE N/A         27  25  92  CALM    30.14R
#WINLOCK        N/A         29  23  78  CALM    30.28R
$$

ORZ506-261610-
OCHOCO AND JOHN DAY HIGHLANDS

CITY            SKY/WX      TMP DP  RH  WIND    PRES   REMARKS
#BUCK CREEK DOT N/A         31  31  100 CALM    N/A
#HORSE RIDGE DO N/A         12   8  84  CALM    N/A
#KEYES SMT DOT  N/A         27  26  96  NW6     N/A
#PAULINA SCHOOL N/A         N/A N/A N/A N1      30.16R
#PRAIRIE CITY   N/A         24  19  81  CALM    30.43R
#SENECA         N/A         25  N/A N/A N5      N/A
#SENECA 9NW     N/A         25  21  84  CALM    30.29S
$$

ORZ049-261610-
GRANDE RONDE VALLEY

CITY            SKY/WX      TMP DP  RH  WIND    PRES   REMARKS
LA GRANDE       CLEAR       30  19  63  N10     30.20R
#COVE           N/A         22  17  81  CALM    30.03S
#COVE SCHOOL    N/A         21  19  92  CALM    30.16R
#COVE 6NW       N/A         22  20  92  CALM    30.37R
#ELGIN 3N       N/A         23  17  77  CALM    29.92R
#ELGIN 1E       N/A         27  23  85  CALM    N/A
#ISLAND CITY 4N N/A         39  39  100 CALM    30.32F
#LADD CYN DOT   N/A         28  21  75  NE5     N/A
#UNION 1S       N/A         26  23  88  CALM    30.24R
$$

ORZ050-261610-
WALLOWA COUNTY

CITY            SKY/WX      TMP DP  RH  WIND    PRES   REMARKS
#ENTERPRISE AP  N/A         24  21  88  N1      30.08R
#ENTERPRISE HS  N/A         18  16  92  CALM    30.16S
#IMNAHA SCHOOL  N/A         33  27  78  CALM    30.20R
#IMNAHA 10S     N/A         32  26  78  CALM    30.15R
#JOSEPH 3N      N/A         18  15  88  CALM    30.15R
#JOSEPH 3W      N/A         22  12  65  CALM    29.93S
#LOSTINE        N/A         14  12  92  CALM    30.16R
#MT HOWARD 8000 N/A         11   9  91  CALM    29.88S
#PROMISE 1S     N/A         26  21  81  CALM    30.40S
#SHEEP RDG 7000 N/A         14  12  92  CALM    30.38R
#WALLOWA SCHOOL N/A         19  17  92  CALM    31.33R



$$



USA.gov is the U.S. government's official web portal to all federal, state and local government web resources and services.